| time (UTC) | temp C | wind direction | speed KPH | gust KPH | rain 1hr cm | rain 24hr cm | rain mn cm | humidity % | barometer mb |
| 20260505010538 | 20 | 251 | 1.6 | 3.2 | 0.00 | 0.03 | 0.00 | 57 | 1008.8 |
| 20260505010038 | 20 | 251 | 0.0 | 4.8 | 0.00 | 0.03 | 0.00 | 57 | 1008.8 |
| 20260505005538 | 20 | 251 | 1.6 | 4.8 | 0.00 | 0.03 | 0.00 | 56 | 1008.7 |
| 20260505005037 | 20 | 251 | 0.0 | 3.2 | 0.00 | 0.03 | 0.00 | 56 | 1008.7 |
| 20260505004546 | 20 | 251 | 0.0 | 3.2 | 0.00 | 0.03 | 0.00 | 56 | 1008.7 |
| 20260505004038 | 20 | 104 | 0.0 | 3.2 | 0.00 | 0.03 | 0.00 | 55 | 1008.9 |
| 20260505003538 | 20 | 103 | 0.0 | 3.2 | 0.00 | 0.03 | 0.00 | 54 | 1008.8 |
| 20260505003036 | 21 | 103 | 0.0 | 4.8 | 0.00 | 0.03 | 0.00 | 53 | 1008.7 |
| 20260505002536 | 21 | 103 | 0.0 | 9.7 | 0.00 | 0.03 | 0.00 | 53 | 1008.8 |
| 20260505002035 | 21 | 103 | 0.0 | 9.7 | 0.00 | 0.03 | 0.00 | 52 | 1008.9 |
| 20260505001536 | 21 | 206 | 0.0 | 3.2 | 0.00 | 0.03 | 0.00 | 52 | 1008.9 |
| 20260505001035 | 21 | 206 | 0.0 | 4.8 | 0.00 | 0.03 | 0.00 | 52 | 1008.9 |
| 20260505000536 | 21 | 206 | 0.0 | 4.8 | 0.00 | 0.03 | 0.00 | 51 | 1008.9 |
| 20260505000054 | 21 | 206 | 1.6 | 4.8 | 0.00 | 0.03 | 0.00 | 51 | 1008.9 |
| 20260504235534 | 22 | 236 | 0.0 | 6.4 | 0.00 | 0.03 | 0.00 | 51 | 1008.8 |
| 20260504235034 | 22 | 236 | 1.6 | 6.4 | 0.00 | 0.03 | 0.00 | 50 | 1008.9 |
| 20260504234533 | 22 | 188 | 0.0 | 9.7 | 0.00 | 0.03 | 0.00 | 51 | 1008.9 |
| 20260504234032 | 22 | 43 | 1.6 | 12.9 | 0.00 | 0.03 | 0.00 | 50 | 1009.0 |
| 20260504233534 | 22 | 179 | 4.8 | 12.9 | 0.00 | 0.03 | 0.00 | 49 | 1008.9 |
| 20260504233032 | 22 | 146 | 1.6 | 12.9 | 0.00 | 0.03 | 0.00 | 50 | 1009.0 |
| 20260504232532 | 22 | 155 | 0.0 | 12.9 | 0.00 | 0.03 | 0.00 | 50 | 1009.1 |
| 20260504232031 | 22 | 194 | 1.6 | 6.4 | 0.00 | 0.03 | 0.00 | 50 | 1009.1 |
| 20260504231532 | 22 | 201 | 1.6 | 6.4 | 0.00 | 0.03 | 0.00 | 50 | 1009.1 |
| 20260504231031 | 22 | 138 | 1.6 | 8.0 | 0.00 | 0.03 | 0.00 | 49 | 1009.1 |
| 20260504230531 | 22 | 188 | 3.2 | 8.0 | 0.00 | 0.03 | 0.00 | 50 | 1009.2 |
| 20260504230030 | 22 | 232 | 3.2 | 8.0 | 0.00 | 0.03 | 0.00 | 49 | 1009.2 |
| 20260504225529 | 22 | 102 | 3.2 | 8.0 | 0.00 | 0.03 | 0.00 | 51 | 1009.0 |
| 20260504225029 | 22 | 132 | 0.0 | 6.4 | 0.00 | 0.03 | 0.00 | 52 | 1009.1 |
| 20260504224528 | 22 | 201 | 1.6 | 11.3 | 0.00 | 0.03 | 0.00 | 50 | 1009.4 |
| 20260504224028 | 22 | 131 | 3.2 | 11.3 | 0.00 | 0.03 | 0.00 | 51 | 1009.5 |
| 20260504223528 | 22 | 295 | 0.0 | 6.4 | 0.00 | 0.03 | 0.00 | 52 | 1009.6 |
| 20260504223028 | 22 | 194 | 1.6 | 3.2 | 0.00 | 0.03 | 0.00 | 53 | 1009.4 |
| 20260504222528 | 23 | 109 | 1.6 | 9.7 | 0.00 | 0.03 | 0.00 | 51 | 1009.4 |
| 20260504222027 | 23 | 119 | 1.6 | 9.7 | 0.00 | 0.03 | 0.00 | 51 | 1009.6 |
| 20260504221527 | 23 | 110 | 3.2 | 8.0 | 0.00 | 0.03 | 0.00 | 52 | 1009.7 |
| 20260504221027 | 23 | 211 | 3.2 | 11.3 | 0.00 | 0.03 | 0.00 | 51 | 1009.7 |
| 20260504220527 | 23 | 161 | 1.6 | 11.3 | 0.00 | 0.03 | 0.00 | 52 | 1009.7 |
| 20260504220026 | 23 | 158 | 1.6 | 11.3 | 0.00 | 0.03 | 0.00 | 53 | 1009.7 |
| 20260504215525 | 23 | 189 | 1.6 | 6.4 | 0.00 | 0.03 | 0.00 | 52 | 1009.6 |
| 20260504215023 | 23 | 147 | 3.2 | 8.0 | 0.00 | 0.03 | 0.00 | 52 | 1009.7 |
| 20260504214523 | 23 | 157 | 1.6 | 12.9 | 0.00 | 0.03 | 0.00 | 53 | 1009.6 |
| 20260504214020 | 22 | 115 | 4.8 | 12.9 | 0.00 | 0.03 | 0.00 | 52 | 1009.4 |
| 20260504213520 | 22 | 176 | 1.6 | 11.3 | 0.00 | 0.03 | 0.00 | 52 | 1009.3 |
| 20260504213020 | 22 | 190 | 3.2 | 11.3 | 0.00 | 0.03 | 0.00 | 52 | 1009.4 |
| 20260504212521 | 22 | 155 | 3.2 | 9.7 | 0.00 | 0.03 | 0.00 | 53 | 1009.6 |
| 20260504212018 | 22 | 184 | 4.8 | 11.3 | 0.00 | 0.03 | 0.00 | 53 | 1009.6 |
| 20260504211519 | 22 | 145 | 1.6 | 9.7 | 0.00 | 0.03 | 0.00 | 54 | 1009.7 |
| 20260504211018 | 22 | 209 | 0.0 | 6.4 | 0.00 | 0.03 | 0.00 | 54 | 1009.8 |
| 20260504210518 | 22 | 104 | 3.2 | 6.4 | 0.00 | 0.03 | 0.00 | 53 | 1009.8 |
| 20260504210023 | 22 | 221 | 0.0 | 8.0 | 0.00 | 0.03 | 0.00 | 58 | 1009.6 |
| 20260504205518 | 22 | 221 | 3.2 | 8.0 | 0.00 | 0.03 | 0.00 | 55 | 1009.7 |
| 20260504205016 | 22 | 225 | 1.6 | 4.8 | 0.00 | 0.03 | 0.00 | 55 | 1009.8 |
| 20260504204616 | 22 | 225 | 1.6 | 6.4 | 0.00 | 0.03 | 0.00 | 55 | 1009.8 |
| 20260504204015 | 22 | 223 | 3.2 | 6.4 | 0.00 | 0.03 | 0.00 | 53 | 1010.0 |
| 20260504203518 | 23 | 242 | 3.2 | 12.9 | 0.00 | 0.03 | 0.00 | 52 | 1010.0 |
| 20260504203013 | 23 | 271 | 3.2 | 12.9 | 0.00 | 0.03 | 0.00 | 52 | 1010.1 |
| 20260504202516 | 23 | 164 | 3.2 | 16.1 | 0.00 | 0.03 | 0.00 | 55 | 1010.3 |
| 20260504202012 | 23 | 188 | 3.2 | 16.1 | 0.00 | 0.03 | 0.00 | 53 | 1010.4 |
| 20260504201508 | 23 | 196 | 4.8 | 12.9 | 0.00 | 0.03 | 0.00 | 53 | 1010.6 |
| 20260504201007 | 22 | 191 | 1.6 | 11.3 | 0.00 | 0.03 | 0.00 | 54 | 1010.6 |
| 20260504200505 | 22 | 189 | 3.2 | 11.3 | 0.00 | 0.03 | 0.00 | 55 | 1010.6 |
| 20260504200007 | 22 | 158 | 3.2 | 11.3 | 0.00 | 0.03 | 0.00 | 56 | 1010.6 |
| 20260504195502 | 22 | 132 | 4.8 | 11.3 | 0.00 | 0.03 | 0.00 | 55 | 1010.7 |
| 20260504195002 | 22 | 241 | 3.2 | 17.7 | 0.00 | 0.03 | 0.00 | 55 | 1010.7 |
| 20260504194501 | 21 | 242 | 3.2 | 11.3 | 0.00 | 0.03 | 0.00 | 55 | 1010.8 |
| 20260504194100 | 21 | 97 | 4.8 | 11.3 | 0.00 | 0.03 | 0.00 | 54 | 1011.1 |
| 20260504193559 | 21 | 275 | 3.2 | 8.0 | 0.00 | 0.03 | 0.00 | 57 | 1011.0 |
| 20260504193059 | 21 | 137 | 3.2 | 11.3 | 0.00 | 0.03 | 0.00 | 56 | 1011.1 |
| 20260504192559 | 21 | 184 | 3.2 | 11.3 | 0.00 | 0.03 | 0.00 | 57 | 1011.2 |
| 20260504192057 | 21 | 332 | 3.2 | 8.0 | 0.00 | 0.03 | 0.00 | 55 | 1011.1 |
| 20260504191607 | 21 | 230 | 1.6 | 8.0 | 0.00 | 0.03 | 0.00 | 56 | 1011.2 |
| 20260504191055 | 21 | 276 | 0.0 | 6.4 | 0.00 | 0.03 | 0.00 | 57 | 1011.1 |
| 20260504190555 | 21 | 277 | 3.2 | 6.4 | 0.00 | 0.03 | 0.00 | 55 | 1011.2 |
| 20260504190116 | 21 | 157 | 1.6 | 6.4 | 0.00 | 0.03 | 0.00 | 56 | 1011.1 |
| 20260504185553 | 21 | 261 | 1.6 | 8.0 | 0.00 | 0.03 | 0.00 | 57 | 1011.1 |
| 20260504185051 | 20 | 183 | 1.6 | 9.7 | 0.00 | 0.03 | 0.00 | 57 | 1011.3 |
| 20260504184550 | 20 | 237 | 3.2 | 9.7 | 0.00 | 0.03 | 0.00 | 57 | 1011.1 |
| 20260504184049 | 20 | 239 | 1.6 | 9.7 | 0.00 | 0.03 | 0.00 | 57 | 1011.1 |
| 20260504183548 | 20 | 217 | 1.6 | 9.7 | 0.00 | 0.03 | 0.00 | 59 | 1011.0 |
| 20260504183047 | 20 | 280 | 3.2 | 9.7 | 0.00 | 0.03 | 0.00 | 58 | 1011.1 |
| 20260504182545 | 20 | 194 | 4.8 | 11.3 | 0.00 | 0.03 | 0.00 | 61 | 1011.3 |
| 20260504182043 | 19 | 248 | 1.6 | 11.3 | 0.00 | 0.03 | 0.00 | 64 | 1011.4 |
| 20260504181545 | 18 | 228 | 3.2 | 11.3 | 0.00 | 0.03 | 0.00 | 65 | 1011.4 |
| 20260504181043 | 18 | 176 | 3.2 | 9.7 | 0.00 | 0.03 | 0.00 | 64 | 1011.5 |
| 20260504180542 | 18 | 221 | 1.6 | 9.7 | 0.00 | 0.03 | 0.00 | 69 | 1011.7 |
| 20260504180042 | 17 | 224 | 3.2 | 9.7 | 0.00 | 0.03 | 0.00 | 68 | 1011.8 |
| 20260504175541 | 17 | 186 | 3.2 | 6.4 | 0.00 | 0.03 | 0.00 | 70 | 1011.5 |
| 20260504175040 | 16 | 327 | 1.6 | 6.4 | 0.00 | 0.03 | 0.00 | 71 | 1011.8 |
| 20260504174540 | 16 | 179 | 1.6 | 6.4 | 0.00 | 0.03 | 0.00 | 71 | 1011.6 |
| 20260504174039 | 16 | 163 | 1.6 | 6.4 | 0.00 | 0.03 | 0.00 | 70 | 1011.5 |
| 20260504173540 | 17 | 344 | 1.6 | 6.4 | 0.00 | 0.03 | 0.00 | 69 | 1011.3 |
| 20260504173039 | 17 | 154 | 1.6 | 9.7 | 0.00 | 0.03 | 0.00 | 69 | 1012.0 |
| 20260504172538 | 17 | 120 | 3.2 | 9.7 | 0.00 | 0.03 | 0.00 | 67 | 1012.4 |
| 20260504172039 | 17 | 158 | 1.6 | 12.9 | 0.00 | 0.03 | 0.00 | 66 | 1012.0 |
| 20260504171537 | 18 | 182 | 0.0 | 12.9 | 0.00 | 0.03 | 0.00 | 63 | 1012.2 |
| 20260504171038 | 18 | 222 | 1.6 | 11.3 | 0.00 | 0.03 | 0.00 | 61 | 1012.3 |
| 20260504170537 | 19 | 238 | 3.2 | 11.3 | 0.00 | 0.03 | 0.00 | 60 | 1012.3 |
| 20260504151019 | 16 | 129 | 3.2 | 9.7 | 0.00 | 0.03 | 0.00 | 69 | 1012.5 |
| 20260504150516 | 15 | 212 | 3.2 | 14.5 | 0.00 | 0.03 | 0.00 | 69 | 1012.4 |
| 20260504141002 | 13 | 122 | 3.2 | 8.0 | 0.00 | 0.03 | 0.00 | 73 | 1013.6 |
| 20260504140601 | 12 | 175 | 1.6 | 8.0 | 0.00 | 0.03 | 0.00 | 74 | 1013.6 |
| 20260504140107 | 12 | 174 | 3.2 | 8.0 | 0.00 | 0.03 | 0.00 | 74 | 1013.4 |
| 20260504130550 | 11 | 101 | 3.2 | 12.9 | 0.00 | 0.03 | 0.00 | 75 | 1014.5 |
| 20260504110530 | 10 | 245 | 1.6 | 6.4 | 0.00 | 0.03 | 0.00 | 72 | 1013.8 |
| 20260504100523 | 8 | 219 | 1.6 | 3.2 | 0.00 | 0.03 | 0.00 | 77 | 1013.9 |
| 20260504081515 | 7 | 217 | 1.6 | 3.2 | 0.00 | 0.03 | 0.00 | 76 | 1014.9 |
| 20260504081010 | 7 | 217 | 1.6 | 3.2 | 0.00 | 0.03 | 0.00 | 76 | 1014.9 |
| 20260504080511 | 8 | 217 | 1.6 | 3.2 | 0.00 | 0.03 | 0.00 | 76 | 1015.0 |
| 20260504050546 | 7 | 145 | 0.0 | 0.0 | 0.00 | 0.03 | 0.00 | 65 | 1016.6 |
| 20260504045544 | 7 | 145 | 0.0 | 0.0 | 0.00 | 0.03 | 0.00 | 64 | 1016.7 |
| 20260504045044 | 7 | 145 | 0.0 | 0.0 | 0.00 | 0.03 | 0.00 | 64 | 1016.7 |
| 20260504044543 | 7 | 145 | 0.0 | 0.0 | 0.00 | 0.03 | 0.00 | 64 | 1016.6 |
| 20260504044043 | 7 | 145 | 0.0 | 1.6 | 0.00 | 0.03 | 0.00 | 64 | 1016.7 |
| 20260504043543 | 7 | 145 | 0.0 | 1.6 | 0.00 | 0.03 | 0.00 | 65 | 1016.6 |
| 20260504043049 | 7 | 145 | 0.0 | 1.6 | 0.00 | 0.03 | 0.00 | 65 | 1016.6 |
| 20260504042542 | 8 | 145 | 0.0 | 0.0 | 0.00 | 0.03 | 0.00 | 66 | 1016.6 |
| 20260504042041 | 8 | 145 | 0.0 | 0.0 | 0.00 | 0.03 | 0.00 | 66 | 1016.7 |
| 20260504041540 | 8 | 145 | 0.0 | 1.6 | 0.00 | 0.03 | 0.00 | 66 | 1016.7 |
| 20260504041039 | 8 | 145 | 0.0 | 1.6 | 0.00 | 0.03 | 0.00 | 66 | 1016.7 |
| 20260504040538 | 8 | 145 | 0.0 | 1.6 | 0.00 | 0.03 | 0.00 | 65 | 1016.8 |
| 20260504040044 | 8 | 145 | 0.0 | 1.6 | 0.00 | 0.03 | 0.00 | 65 | 1016.8 |
| 20260504035537 | 8 | 145 | 0.0 | 1.6 | 0.00 | 0.03 | 0.03 | 66 | 1016.9 |
| 20260504035037 | 8 | 145 | 0.0 | 1.6 | 0.00 | 0.03 | 0.03 | 67 | 1016.9 |
| 20260504034541 | 8 | 145 | 0.0 | 1.6 | 0.00 | 0.03 | 0.03 | 67 | 1017.0 |
| 20260504034038 | 8 | 145 | 0.0 | 1.6 | 0.00 | 0.03 | 0.03 | 68 | 1016.7 |
| 20260504033537 | 8 | 145 | 0.0 | 1.6 | 0.00 | 0.03 | 0.03 | 69 | 1016.8 |
| 20260504033038 | 8 | 145 | 0.0 | 1.6 | 0.00 | 0.03 | 0.03 | 69 | 1016.9 |
| 20260504032536 | 8 | 145 | 0.0 | 1.6 | 0.00 | 0.03 | 0.03 | 70 | 1016.9 |
| 20260504032037 | 8 | 145 | 0.0 | 1.6 | 0.03 | 0.03 | 0.03 | 71 | 1017.1 |
| 20260504031542 | 8 | 145 | 0.0 | 1.6 | 0.03 | 0.03 | 0.03 | 71 | 1017.1 |
| 20260504031036 | 8 | 145 | 0.0 | 1.6 | 0.03 | 0.03 | 0.03 | 72 | 1017.1 |
| 20260504030535 | 8 | 145 | 0.0 | 1.6 | 0.03 | 0.03 | 0.03 | 73 | 1017.1 |
| 20260504030036 | 8 | 145 | 0.0 | 1.6 | 0.03 | 0.03 | 0.03 | 74 | 1017.1 |
| 20260504025535 | 8 | 145 | 0.0 | 1.6 | 0.03 | 0.03 | 0.03 | 75 | 1017.1 |
| 20260504025035 | 9 | 145 | 0.0 | 1.6 | 0.03 | 0.03 | 0.03 | 76 | 1017.3 |
| 20260504024534 | 9 | 145 | 0.0 | 3.2 | 0.03 | 0.03 | 0.03 | 76 | 1017.5 |
| 20260504024034 | 9 | 145 | 0.0 | 3.2 | 0.03 | 0.03 | 0.03 | 76 | 1017.2 |
| 20260504023534 | 10 | 145 | 0.0 | 4.8 | 0.03 | 0.03 | 0.03 | 75 | 1017.1 |
| 20260504023035 | 10 | 145 | 1.6 | 4.8 | 0.03 | 0.03 | 0.03 | 75 | 1017.3 |
| 20260504022535 | 10 | 144 | 0.0 | 3.2 | 0.03 | 0.03 | 0.03 | 72 | 1017.1 |
| 20260504022033 | 10 | 144 | 0.0 | 3.2 | 0.00 | 0.00 | 0.00 | 70 | 1017.1 |
| 20260504021533 | 10 | 144 | 0.0 | 1.6 | 0.00 | 0.00 | 0.00 | 69 | 1017.1 |
| 20260504021034 | 10 | 144 | 0.0 | 1.6 | 0.00 | 0.00 | 0.00 | 67 | 1017.1 |
| 20260504020534 | 10 | 144 | 0.0 | 3.2 | 0.00 | 0.00 | 0.00 | 69 | 1017.1 |
| 20260504020033 | 10 | 144 | 0.0 | 3.2 | 0.00 | 0.00 | 0.00 | 66 | 1017.0 |
| 20260504015533 | 10 | 144 | 0.0 | 3.2 | 0.00 | 0.00 | 0.00 | 66 | 1016.9 |
| 20260504015033 | 10 | 144 | 0.0 | 3.2 | 0.00 | 0.00 | 0.00 | 64 | 1016.9 |
| 20260504014533 | 10 | 144 | 0.0 | 1.6 | 0.00 | 0.00 | 0.00 | 64 | 1017.0 |
| 20260504014033 | 10 | 144 | 0.0 | 1.6 | 0.00 | 0.00 | 0.00 | 63 | 1017.0 |
| 20260504013532 | 11 | 144 | 0.0 | 1.6 | 0.00 | 0.00 | 0.00 | 62 | 1016.9 |
| 20260504013036 | 11 | 144 | 0.0 | 1.6 | 0.00 | 0.00 | 0.00 | 62 | 1016.8 |
| 20260504012633 | 11 | 144 | 0.0 | 1.6 | 0.00 | 0.00 | 0.00 | 63 | 1016.7 |
| 20260504012030 | 11 | 144 | 0.0 | 0.0 | 0.00 | 0.00 | 0.00 | 63 | 1016.5 |
| 20260504011532 | 11 | 144 | 0.0 | 1.6 | 0.00 | 0.00 | 0.00 | 63 | 1016.5 |
| 20260504011030 | 11 | 141 | 0.0 | 1.6 | 0.00 | 0.00 | 0.00 | 60 | 1016.4 |